"Pseudo-MPEC" for QQ-2C
Created 2024 Mar 23 23:02:23 UT using Find_Orb
Click here for an explanation of pseudo-MPECs
You can click here for a pseudo-MPEC for the Queqiao-2 spacecraft or here for a pseudo-MPEC for the Queqiao-2 booster.
You can find TLEs for all three known Queqiao objects (look for '24051a.tle' = spacecraft, '24051b.tle' = booster, and 'qq2c.tle' = either Tiandu-1 or Tiandu-2, we don't know which one.) You can also get customized ephemerides for any of these objects.
Astrometry:
A115fct* C2024 03 21=d=R-)8%D1\e#+h%wUGAstrometrybXtBSW,0N['9yY(LbJfxii]T05
A115fct C2024 03 21WHyUW=it9CQF-Z[4redacted;sZHs=NNYRnWB7ny_m.qn`Bs)t?6T05
A115fct C2024 03 21T!%'click5MT,here!(?SPvOgD)M87D`q^(khV0X0e]kUdFa?('MT05
A115fct C2024 03 21YWF+MnwK.H069Rm$0WCH#xfI:,+AYdR5eTu8Ld0tt!4Lnl6%58(hT05
A115fct C2024 03 21%+(e7#D!U3@ford.YfZww/KxwQFig%XZbexplanationF_G(J^+HT05
A115fct KB2024 03 21.63246 11 31 16.84 -02 40 14.3 ~3M2t 18.1 GVNEOCPO46
A115fct KB2024 03 21.64391 11 31 10.14 -02 38 50.6 ~3M2t 17.8 GVNEOCPO46
A115fct KB2024 03 21.65542 11 31 02.98 -02 37 26.4 ~3M2t 18.2 GVNEOCPO46
A115fct KB2024 03 21.66674 11 30 55.49 -02 36 03.4 ~3M2t 18.3 GVNEOCPO46
A115fct mC2024 03 22.12605011 40 56.672-01 47 14.89 ~3M3N 17.12GVNEOCPI52
A115fct mC2024 03 22.12621911 40 56.719-01 47 13.85 ~3M3N 16.90GVNEOCPI52
A115fct mC2024 03 22.12936011 40 56.849-01 46 57.43 ~3M3N 16.95GVNEOCPI52
A115fct mC2024 03 22.13249711 40 56.921-01 46 40.62 ~3M3N 16.92GVNEOCPI52
A115fct KC2024 03 22.14432711 39 33.50 -01 53 17.1 17.3 GV H21
A115fct B2024 03 22.14600111 34 51.318-01 55 14.77 18.5 VZNEOCPY89
A115fct KC2024 03 22.14625511 39 32.76 -01 53 06.3 17.3 GV H21
A115fct KC2024 03 22.14818411 39 31.99 -01 52 55.6 17.3 GV H21
A115fct KC2024 03 22.15011211 39 31.21 -01 52 44.6 17.3 GV H21
A115fct B2024 03 22.15622711 34 52.371-01 54 08.24 18.8 VZNEOCPY89
A115fct B2024 03 22.16682311 34 54.067-01 52 58.61 17.1 VZNEOCPY89
A115fct KB2024 03 22.19101 11 39 41.350-01 48 08.71 17.1 RZ H36
A115fct KB2024 03 22.19384 11 39 39.938-01 47 52.30 16.9 RZ H36
A115fct KB2024 03 22.19604 11 39 38.846-01 47 39.88 17.2 RZ H36
A115fct KB2024 03 22.21031 11 40 31.41 -01 39 12.1 18.4 VZ V24
A115fct KB2024 03 22.21318 11 40 29.83 -01 38 56.3 17.1 VZ V24
A115fct KB2024 03 22.21570 11 40 28.45 -01 38 43.3 17.4 VZ V24
A115fct KB2024 03 22.23575 11 40 16.36 -01 36 53.7 17.0 VZ V24
A115fct KB2024 03 22.23862 11 40 14.56 -01 36 38.9 18.0 VZ V24
A115fct KB2024 03 22.24222 11 40 12.23 -01 36 18.6 18.0 VZ V24
QQ-2C C2024 03 22.27991 11 39 54.95 -01 41 24.3 17.1 MPML 718
QQ-2C C2024 03 22.28065 11 39 54.71 -01 41 19.7 16.9 MPML 718
QQ-2C C2024 03 22.28178 11 39 54.03 -01 41 13.8 17.2 MPML 718
QQ-2C C2024 03 22.28234 11 39 53.70 -01 41 10.4 17.0 MPML 718
A115fct KB2024 03 22.30840 11 38 36.684-01 36 54.94 17.2 RZ H36
A115fct KB2024 03 22.31271 11 38 34.642-01 36 29.84 17.4 RZ H36
A115fct KB2024 03 22.31694 11 38 32.686-01 36 05.15 17.1 RZ H36
Station data:
(718) Tooele (N40.641406 W112.295800) US/Utah. Observer P. Wiggins. 0.35-m
f/5.5 Schmidt-Cassegrain + CCD.
(H21) Astronomical Research Observatory, Westfield (N39.483054 W87.968270)
US/Illinois. Observer R. Holmes. Measurers S. Foglia, L. Buzzi, T.
Linder, R. Holmes. 0.76-m f/3.0 astrograph + CCD0.81-m f/4.0 astrograph +
CCD0.61-m f/4.5 astrograph + CCD0.40-m f/5.32 astrograph + CCD.
(H36) Sandlot Observatory, Scranton (N38.797700 W95.706554) US/Kansas.
Observer G. Hug. 0.56-m reflector + CCD.
(I52) Steward Observatory, Mt. Lemmon Station (N32.442544 W110.788920)
US/Arizona. Observers T. A. Pruyne, B. M. Africano, E. J. Christensen, G.
A. Farneth, D. C. Fuls, A. R. Gibbs, A. D. Grauer, H. Gröller, J. A.
Johnson, R. A. Kowalski, S. M. Larson, G. J. Leonard, D. Rankin, R. L.
Seaman, F. C. Shelly, K. W. Wierzchoś. 1.0-m prime focus + CCD.
(O46) Daocheng Glacier Observatory (N29.011748 E100.226640) China.
Observer Z. Wang. 0.25-m f/8 reflector + CMO.
(T05) ATLAS-HKO, Haleakala (N20.707582 W156.257008) US/Hawaii. Observers
L. Denneau, A. Heinze, H. Weiland, J. Tonry, H. Flewelling, A.
Fitzsimmons, D. Young, B. Stalder. Measurers L. Denneau, A. Heinze, J.
Tonry. 0.5-m f/2.0 Schmidt + CCD.
(V24) Sonoran Desert Skies Observatory, Pearce (N31.866802 W109.515970)
US/Arizona.
(Y89) Proxima Centauri Observatory, Valdin (N42.222443 W6.988110) Spain.
Observer R. Hahn. 0.36-m f/2.0 reflector + CMO.
Orbital elements: QQ-2C
Perigee 2024 Mar 20.036990 +/- 0.000534 TT = 0:53:15.9 (JD 2460389.536990)
Epoch 2024 Mar 20.0 TT = JDT 2460389.5 Find_Orb
M 358.778995158 +/- 0.017 (J2000 equator)
n 33.009124603 +/- 0.0202 Peri. 185.294901 +/- 0.007
a207737.1495 +/- 84.8 Node 177.612599 +/- 0.00053
e 0.96757444 +/- 1.03e-5 Incl. 21.014125 +/- 0.0023
P 10.9059d H 30.76 G 0.15 U 10.1
q 6735.993134 +/- 2.03 Q 408738.3059 +/- 168
From 36 observations 2024 Mar. 21-22 (17.5 hr); mean residual 0".730
Orbital elements: QQ-2C (lunar arrival)
Perilune 2024 Mar 24.734778 +/- 0.000257 TT = 17:38:04.8 (JD 2460394.234778)
Epoch 2024 Mar 24.7 TT = JDT 2460394.2 Find_Orb
q 2027.628418 +/- 23.5 (J2000 ecliptic)
H 30.76 G 0.15 Peri. 125.438170 +/- 0.33
Node 274.801086 +/- 0.52
e 1.29933760 +/- 0.0036 Incl. 105.072887 +/- 2.1
From 36 observations 2024 Mar. 21-22 (17.5 hr); mean residual 0".730
